SCP
0 0 0 0 0 0 0 0 0 0 0 0 0 0 0 0 0 0 0 0 0 0 0 0 0 0 0 0 0 0 0 0 0 0 0 0 0 0 0 0 0 0 0 0 0 0 0 0 0
0 0 0 0 0 0 0 0 0 0 0 0 0 0 0 0 0 0 0 0 0 0 0 0 0 0 0 0 0 0 0 0 0 0 0 0 0 0 0 0 0 0 0 0 0 0 0 0 0
0 0 0 0 0 0 0 0 0 0 0 0 0 0 0 0 0 0 0 0 0 0 0 0 0 0 0 0 0 0 0 0 0 0 0 0 0 0 0 0 0 0 0 0 0 0 0 0 0
0 0 0 0 0 0 0 0 0 0 0 0 0 0 0 0 0 0 0 0 0 0 0 0 0 0 0 0 0 0 0 0 0 0 0 0 0 0 0 0 0 0 0 0 0 0 0 0 0
0 0 0 0 0 0 0 0 0 0 0 0 0 0 0 0 0 0 0 0 0 0 0 0 0 0 0 0 0 0 0 0 0 0 0 0 0 0 0 0 0 0 0 0 0 0 0 0 0
0 0 0 0 0 0 0 0 0 0 0 0 0 0 0 0 0 0 0 0 0 0 0 0 0 0 0 0 0 0 0 0 0 0 0 0 0 0 0 0 0 0 0 0 0 0 0 0 0
0 0 0 0 0 0 0 0 0 0 0 0 0 0 0 0 0 0 0 0 0 0 0 0 0 0 0 0 0 0 0 0 0 0 0 0 0 0 0 0 0 0 0 0 0 0 0 0 0
0 0 0 0 0 0 0 0 0 0 0 0 0 0 0 0 0 1 0 0 0 0 0 0 0 0 0 0 0 0 0 0 0 0 0 0 0 0 0 0 0 0 0 0 0 0 0 0 0
0 0 0 0 0 0 0 0 0 0 0 0 0 0 0 0 1 1 1 0 0 0 0 0 0 0 0 0 0 0 0 0 0 0 0 0 0 0 0 0 0 0 0 0 0 0 0 0 0
0 0 0 0 0 0 0 0 0 0 0 0 0 0 0 1 1 1 1 1 0 0 0 0 0 0 0 0 0 0 0 0 0 0 0 0 0 0 0 0 0 0 0 0 0 0 0 0 0
0 0 0 0 0 0 0 0 0 0 0 0 0 1 1 1 1 1 1 1 1 0 0 0 0 0 0 0 0 0 0 0 0 0 0 0 0 0 0 0 0 0 0 0 0 0 0 0 0
0 0 0 0 0 0 0 0 0 0 0 0 0 1 1 1 1 0 1 1 1 0 0 0 0 0 0 0 0 0 0 0 0 0 0 0 0 0 0 0 0 0 0 0 0 0 0 0 0
0 0 0 0 0 0 0 0 0 0 0 0 0 0 1 0 0 0 0 1 1 1 1 0 0 0 0 0 0 0 0 0 0 0 0 0 0 0 0 0 0 0 0 0 0 0 0 0 0
0 0 0 0 0 0 0 0 0 0 0 0 0 0 0 0 1 1 1 1 1 1 1 1 0 0 0 0 0 0 0 0 0 0 0 0 0 0 0 0 0 0 0 0 0 0 0 0 0
0 0 0 0 0 0 0 0 0 0 0 0 0 0 0 1 1 1 1 1 1 1 1 1 1 0 0 0 0 0 0 0 0 0 0 0 0 0 0 0 0 0 0 0 0 0 0 0 0
0 0 0 0 0 0 0 0 0 0 0 0 0 1 1 1 1 1 1 1 1 1 1 1 1 0 0 0 0 0 0 0 0 0 0 0 0 0 0 0 0 0 0 0 0 0 0 0 0
0 0 0 0 0 0 0 0 0 0 0 0 1 1 1 1 1 1 1 1 1 1 1 1 1 0 0 0 0 0 0 0 0 0 0 0 0 0 0 0 0 0 0 0 0 0 0 0 0
0 0 0 0 0 0 0 0 0 0 0 1 1 1 1 1 1 1 1 1 1 1 1 1 1 1 0 0 0 0 0 0 0 0 0 0 0 0 0 0 0 0 0 0 0 0 0 0 0
0 0 0 0 0 0 0 0 0 0 0 1 1 1 1 1 1 1 1 1 1 1 1 1 1 1 0 0 0 0 0 0 0 0 0 0 0 0 0 0 0 0 0 0 0 0 0 0 0
0 0 0 0 0 0 0 0 0 0 0 1 1 1 1 1 1 1 1 1 1 1 1 1 1 1 1 0 0 0 0 0 0 0 0 0 0 0 0 0 0 0 0 0 0 0 0 0 0
0 0 0 0 0 0 0 0 0 0 0 1 1 1 1 1 1 1 1 1 1 1 1 1 1 1 1 1 0 0 0 0 0 0 0 0 0 0 0 0 0 0 0 0 0 0 0 0 0
0 0 0 0 0 0 0 0 0 0 0 1 1 1 1 1 1 1 1 1 1 1 1 1 1 1 1 1 0 0 0 0 0 0 0 0 0 0 0 0 0 0 0 0 0 0 0 0 0
0 0 0 0 0 0 0 0 0 0 0 1 1 1 1 1 1 1 1 1 1 1 1 1 1 1 1 1 1 0 0 0 0 0 0 0 0 0 0 0 0 0 0 0 0 0 0 0 0
0 0 0 0 0 0 0 0 0 0 0 0 0 1 1 1 1 1 1 1 1 1 1 1 1 1 1 1 1 1 0 0 0 0 0 0 0 0 0 0 0 0 0 0 0 0 0 0 0
0 0 0 0 0 0 0 0 0 0 0 0 0 0 1 1 1 1 1 1 1 1 1 1 1 1 1 1 1 1 0 0 0 0 0 0 0 0 0 0 0 0 0 0 0 0 0 0 0
0 0 0 0 0 0 0 0 0 0 0 0 0 0 1 1 1 1 1 1 1 1 1 1 1 1 1 1 1 1 1 0 0 0 0 0 0 0 0 0 0 0 0 0 0 0 0 0 0
0 0 0 0 0 0 0 0 0 0 0 0 0 1 1 1 1 1 1 1 1 1 1 1 1 1 1 1 1 1 1 1 0 0 0 0 0 0 0 0 0 0 0 0 0 0 0 0 0
0 0 0 0 0 0 0 0 0 0 0 0 1 1 1 1 1 1 1 1 1 1 1 1 1 1 1 1 1 1 1 1 0 0 0 0 0 0 0 0 0 0 0 0 0 0 0 0 0
0 0 0 0 0 0 0 0 0 0 0 1 1 1 1 1 1 1 1 1 1 1 1 1 1 1 1 1 1 1 1 1 0 0 0 0 0 0 0 0 0 0 0 0 0 0 0 0 0
-0 -0 0 0 0 0 0 0 0 0 0 1 1 1 1 1 1 1 1 1 1 1 1 1 1 1 1 1 1 1 1 1 0 0 0 0 0 0 0 0 0 0 0 0 0 0 0 0 0
Wind_Speed
12 9 4 2 3 4 5 5 8 9 7 8 10 10 9 7 6 7 4 10 11 9 7 10 13 13 13 13 13 13 13 13 14 14 14 13 13 13 13 13 13 12 12 12 12 12 12 13 13
9 8 3 2 5 4 4 6 12 11 12 12 12 12 10 9 9 11 7 10 11 9 7 9 13 13 13 13 12 12 13 13 13 13 13 13 12 12 12 12 12 12 12 12 11 12 12 12 13
8 5 3 3 3 5 6 8 14 13 11 9 7 7 7 8 10 9 9 13 10 8 7 9 14 13 13 13 12 12 12 12 12 12 12 12 11 11 11 11 11 11 11 11 11 11 11 11 11
4 2 3 4 4 4 9 11 14 14 10 9 10 8 6 7 8 11 15 14 12 8 7 9 14 14 13 13 12 12 12 12 12 12 11 11 11 11 11 11 10 10 10 10 10 10 11 11 10
2 3 5 4 4 5 9 13 12 11 7 9 11 9 6 5 14 18 16 14 13 9 6 8 14 14 13 12 12 12 12 11 11 11 11 10 10 10 10 10 9 9 9 10 10 10 10 9 8
2 4 5 3 5 6 8 11 13 15 15 13 12 10 5 9 15 16 14 12 12 11 8 8 13 14 13 12 12 11 11 11 11 11 10 10 10 10 9 9 9 9 9 9 9 9 8 8 7
4 4 4 5 6 6 8 9 11 13 14 10 11 9 6 8 12 14 13 12 11 10 8 6 7 9 12 12 12 11 11 10 10 10 10 10 9 9 9 9 9 9 9 9 9 8 7 6 5
5 5 4 4 7 6 7 7 10 13 10 13 9 9 8 10 12 14 12 10 10 8 8 7 6 5 5 7 11 11 10 10 9 9 10 9 9 8 8 7 8 9 9 8 8 7 6 5 4
5 6 3 5 7 6 8 10 7 8 11 7 5 8 13 15 16 14 11 8 8 9 6 7 6 5 5 5 8 8 9 9 8 7 9 7 3 3 4 6 7 8 8 8 7 6 5 4 3
5 5 6 6 8 9 11 12 9 8 10 9 11 12 15 15 16 15 13 12 11 10 8 7 8 7 6 6 4 3 4 4 3 3 3 3 2 2 4 6 8 7 7 7 6 6 4 2 0
5 6 5 5 9 11 11 9 7 12 9 14 18 17 16 14 13 13 13 12 12 11 10 8 8 8 7 4 4 2 2 2 3 3 3 3 2 2 2 2 3 3 4 2 3 2 1 1 1
4 3 7 6 7 9 10 9 8 9 11 15 17 16 14 14 12 12 11 10 10 10 10 9 9 7 7 5 4 4 2 3 3 4 5 3 2 2 2 2 2 2 1 2 1 1 2 2 2
4 3 4 6 7 9 11 10 10 9 14 14 15 14 13 12 10 9 9 9 9 10 9 9 8 8 7 6 4 5 4 4 4 4 4 5 4 4 3 3 2 3 2 2 2 2 2 2 3
1 3 3 6 7 8 13 10 9 11 16 15 14 12 12 11 10 8 9 9 9 9 9 8 8 8 7 5 4 4 4 4 3 4 5 6 5 4 4 3 3 3 3 3 3 3 2 2 2
2 4 3 2 4 5 11 7 10 16 16 16 14 12 11 9 10 11 11 10 10 10 8 8 8 7 6 6 5 4 3 3 3 4 5 5 5 5 5 4 3 3 3 3 2 2 2 2 2
4 3 1 3 4 4 8 7 9 15 16 14 13 12 10 9 10 11 11 10 9 10 9 8 8 7 6 5 4 3 3 3 3 3 4 5 6 6 4 4 3 3 3 3 3 2 2 2 2
3 0 3 3 4 5 6 7 11 13 15 13 13 12 11 9 9 9 11 11 10 10 9 8 6 7 6 5 3 3 3 3 3 3 4 5 6 6 5 4 3 3 2 2 3 2 2 2 2
5 3 3 5 5 5 5 7 12 14 14 14 13 11 11 12 11 11 11 11 10 9 9 8 7 6 5 3 2 1 1 2 2 3 4 5 5 6 5 4 4 4 3 2 2 3 2 2 2
6 4 4 5 4 4 6 8 13 14 13 12 11 11 12 12 10 10 11 11 10 8 8 8 7 6 4 3 3 2 2 2 2 3 5 5 5 5 5 3 3 3 3 4 4 3 3 2 1
4 3 2 3 2 4 5 5 9 12 15 15 15 14 13 10 9 10 10 10 10 10 9 8 8 7 6 4 3 3 3 2 2 2 3 5 5 5 5 5 4 4 3 3 3 3 2 2 2
4 3 3 3 2 3 5 1 3 6 6 9 13 13 14 15 14 13 12 11 11 11 11 9 8 7 6 5 3 2 1 0 0 1 2 3 4 4 4 5 4 4 4 4 4 4 4 3 2
5 6 4 2 3 1 3 2 5 6 6 9 11 12 14 14 13 13 13 12 12 12 10 9 8 7 6 6 5 5 4 3 3 2 2 3 3 4 4 5 5 4 3 4 4 4 3 3 3
7 4 2 1 3 1 1 3 6 4 7 11 13 14 15 15 15 15 14 13 12 11 10 9 8 7 7 6 6 5 4 3 2 2 2 2 2 3 3 4 4 4 4 4 4 3 4 3 4
2 3 6 6 5 1 4 4 6 8 13 13 13 14 14 14 14 13 12 10 9 9 9 9 9 8 7 7 6 6 5 4 3 3 3 2 1 2 2 3 3 4 3 4 4 4 4 4 4
3 6 5 5 5 5 4 3 10 11 11 15 16 15 14 13 13 12 12 11 10 11 11 10 10 9 8 8 7 6 6 6 5 4 4 3 2 2 3 3 3 3 3 4 4 4 4 4 4
3 10 8 5 5 6 4 4 9 8 9 10 12 13 13 12 12 13 13 13 13 12 11 10 10 9 8 8 7 6 6 4 4 4 3 4 3 3 3 3 3 4 4 4 3 3 4 4 4
3 4 10 8 3 1 5 6 8 2 3 6 9 11 13 13 13 13 13 12 12 12 12 12 11 9 9 9 7 6 6 5 5 4 4 3 3 2 3 3 3 3 3 3 3 3 4 3 4
8 7 6 6 5 2 5 4 5 3 4 6 10 11 11 11 11 11 11 12 11 11 10 10 11 10 9 8 7 7 6 6 5 4 4 4 3 2 2 2 2 2 3 3 3 3 3 3 4
0 2 5 5 6 7 3 7 7 8 9 10 11 11 12 12 11 11 10 10 9 8 9 10 10 9 8 8 7 6 6 5 5 4 4 4 3 3 3 2 2 2 2 2 2 2 3 3 3
6 6 7 5 4 5 5 9 6 6 7 9 10 11 12 12 12 11 10 9 8 8 9 9 9 9 9 8 7 6 6 5 5 5 5 4 4 3 3 2 1 1 1 1 1 2 2 2 2
Wind_Direction
154 151 146 139 58 53 77 85 97 87 70 69 78 85 83 66 99 127 143 141 139 139 136 127 122 119 115 112 111 110 109 108 107 106 106 107 109 110 112 113 115 117 118 117 118 118 119 120 120
155 153 144 81 79 83 87 101 96 100 118 108 86 84 76 70 86 114 129 146 142 137 134 131 126 123 118 116 115 116 115 114 113 112 113 112 113 113 114 115 116 119 121 122 122 124 125 125 124
165 172 121 78 95 132 129 115 111 110 110 100 95 75 76 105 118 133 148 148 139 131 130 135 131 127 124 121 120 120 119 118 116 117 118 117 117 117 117 118 120 122 125 127 129 131 130 128 126
162 122 59 74 105 133 128 127 121 112 91 83 93 76 77 116 128 138 145 146 135 132 133 139 134 131 128 125 124 124 123 122 121 121 121 122 122 120 120 121 124 126 128 131 133 136 135 133 133
97 86 63 62 97 110 118 126 124 111 98 97 96 98 85 95 120 134 144 143 139 137 137 139 137 134 132 131 130 129 127 126 125 124 124 124 124 124 124 125 127 129 132 133 135 139 141 141 140
68 71 77 83 99 106 113 120 109 104 112 110 108 106 103 129 133 142 144 142 141 140 139 140 141 139 137 135 135 134 132 131 130 129 128 129 129 128 128 129 131 133 136 137 138 142 146 146 146
122 100 121 124 112 112 122 125 122 126 127 129 126 107 120 145 146 144 143 140 140 143 143 141 143 142 142 141 140 139 138 137 137 137 136 136 136 135 135 136 136 137 137 140 143 148 150 151 153
146 110 100 116 121 123 133 117 131 133 122 132 132 127 151 161 144 138 139 139 142 148 151 149 146 143 144 144 147 146 146 145 146 147 145 145 145 144 144 142 144 145 144 147 149 154 156 161 168
114 94 133 159 144 146 135 111 114 113 125 142 117 129 146 143 136 136 136 138 150 158 162 159 157 156 153 154 158 155 155 155 154 154 153 147 136 137 147 154 155 155 155 157 157 160 167 174 183
109 130 182 174 151 147 139 130 128 111 114 107 108 118 134 140 142 148 153 159 165 170 176 171 167 168 169 168 153 157 162 159 160 164 160 147 152 166 166 168 167 165 165 165 165 171 179 181 183
125 151 155 138 139 139 136 133 121 125 132 144 143 146 148 148 151 156 163 167 171 171 172 173 171 170 173 166 160 173 174 171 182 186 180 164 159 171 173 163 171 176 174 165 167 170 175 183 207
101 133 136 143 138 131 136 133 123 137 156 155 149 150 152 156 163 167 168 169 165 164 171 170 171 169 171 166 173 177 182 184 194 193 183 167 163 171 177 175 178 181 172 173 187 192 204 216 227
88 97 114 131 123 123 118 124 123 136 143 147 148 151 159 164 170 173 166 158 152 155 161 165 164 163 165 165 180 178 191 194 194 184 182 172 171 176 176 183 189 193 186 185 196 206 209 219 232
183 116 120 127 122 124 119 121 115 143 146 151 157 164 170 171 167 160 157 156 155 156 157 158 157 158 156 162 167 168 181 191 189 186 184 176 173 173 173 181 189 198 197 199 196 202 209 221 226
54 78 59 129 127 132 114 107 143 152 153 158 166 171 172 170 163 163 167 164 161 159 159 160 160 158 158 162 165 159 168 175 184 190 186 179 174 173 173 177 188 199 193 190 188 201 211 220 225
28 59 147 242 152 161 119 148 170 158 157 164 171 173 170 167 166 165 164 162 160 157 160 168 166 161 167 170 170 160 163 167 183 185 182 182 177 176 175 178 192 196 182 176 179 187 201 225 224
12 192 237 248 203 166 135 160 175 168 163 170 174 174 169 167 170 169 168 165 164 163 162 167 163 165 172 174 174 171 167 177 187 182 180 184 182 180 178 186 192 185 174 185 195 184 190 207 223
253 249 246 217 213 165 153 164 169 175 174 176 176 174 171 174 179 173 169 167 163 164 163 162 164 171 170 167 163 164 160 185 186 185 191 187 186 184 181 190 194 178 170 190 192 191 199 202 210
223 244 252 246 204 155 162 161 172 176 176 175 178 178 178 181 179 169 168 166 162 163 164 164 164 176 166 163 171 172 194 201 202 206 201 194 192 186 181 186 184 178 181 197 197 185 194 210 173
236 256 272 287 168 141 154 170 182 181 184 179 180 182 180 176 171 174 171 170 171 173 174 172 172 177 179 181 178 177 177 199 202 212 201 196 193 188 185 183 184 184 185 197 199 187 177 210 177
274 218 211 215 25 46 102 32 204 207 189 182 184 182 179 179 179 180 178 178 176 180 181 181 180 180 184 179 163 155 125 61 194 213 205 205 188 189 189 189 188 190 188 200 205 193 186 207 220
267 240 201 168 99 274 131 187 247 205 201 197 190 185 185 184 180 182 181 182 185 187 183 179 178 178 182 175 171 176 183 195 212 204 203 209 197 195 198 197 194 191 190 200 213 197 189 188 214
232 232 186 141 127 55 10 138 266 193 203 210 198 194 192 186 181 183 185 186 186 182 180 179 175 179 183 181 179 181 191 198 201 194 193 205 209 209 208 200 195 194 197 203 210 200 201 198 202
226 44 28 47 68 4 250 163 252 209 203 203 201 200 193 184 181 182 183 178 178 177 178 176 176 184 183 183 182 186 191 189 185 196 199 210 215 227 226 204 198 200 200 206 210 208 212 215 214
69 80 32 359 9 253 254 182 241 227 205 194 192 194 188 182 176 174 174 176 179 179 179 177 178 184 184 184 188 191 192 189 193 196 198 197 202 217 228 215 203 207 210 215 213 212 220 219 220
201 137 155 193 221 272 308 232 252 233 203 191 185 180 175 176 175 177 179 181 182 180 178 177 181 184 184 186 191 191 188 186 191 194 190 193 198 209 215 210 208 212 213 220 216 222 230 227 230
184 184 170 145 175 267 285 287 307 354 159 160 161 161 167 173 175 178 177 180 180 179 182 181 182 184 186 188 188 189 189 188 192 193 189 192 202 210 210 209 207 215 220 225 219 229 239 234 235
175 166 102 117 149 241 289 274 244 236 185 159 154 159 164 170 172 175 178 177 181 183 180 177 181 185 186 186 189 192 191 190 190 186 188 191 199 205 199 212 212 220 230 233 222 234 244 239 246
166 113 117 127 152 158 225 266 235 200 185 167 161 161 160 163 172 181 177 174 174 171 173 178 183 183 184 186 186 182 180 181 177 178 186 188 195 197 201 212 216 228 242 244 233 242 242 237 248
177 178 146 151 218 168 172 260 267 195 169 153 156 158 158 163 171 174 167 161 163 171 173 178 182 182 183 180 175 175 177 177 178 183 188 186 191 196 194 190 195 216 242 257 253 261 258 242 245